When you browse on this site, cookies collect data to enhance your experience and personalize the content and advertising you see.
Visit our Privacy Policy to learn more. By continuing to use the site, you agree to this use of cookies and data.
  • In Hungary
  • List of Countries
  • For 7 days
  • Water Temperature
  • Weather Map
  • News
  • Weather Widgets
  • user-avatar
    Login

    Hourly Weather Sydney

    Today, 26 May, Tuesday

    Time Temperature Precipitation Wind Pressure Humidity
    00:00 +14°C° 0.9 mm 7 mps 764 mmHg 86%
    01:00 +12°C° 0.9 mm 7 mps 764 mmHg 86%
    02:00 +12°C° 0.6 mm 7 mps 764 mmHg 86%
    03:00 +13°C° 0.6 mm 6 mps 764 mmHg 87%
    04:00 +14°C° 0 mm 7 mps 764 mmHg 87%
    05:00 +14°C° 0.6 mm 6 mps 764 mmHg 87%
    06:00 +13°C° 0.6 mm 6 mps 765 mmHg 87%
    07:00 +13°C° 0.6 mm 6 mps 765 mmHg 87%
    08:00 +14°C° 0.4 mm 6 mps 765 mmHg 86%
    09:00 +15°C° 0.4 mm 6 mps 766 mmHg 86%
    10:00 +16°C° 0 mm 6 mps 766 mmHg 86%
    11:00 +16°C° 0.3 mm 6 mps 765 mmHg 82%
    12:00 +17°C° 0.3 mm 7 mps 765 mmHg 77%
    13:00 +18°C° 0.3 mm 7 mps 764 mmHg 72%
    14:00 +17°C° 0.1 mm 7 mps 765 mmHg 72%
    15:00 +17°C° 0.1 mm 7 mps 765 mmHg 72%
    16:00 +16°C° 0 mm 5 mps 765 mmHg 74%
    17:00 +16°C° 0.1 mm 5 mps 765 mmHg 77%
    18:00 +15°C° 0.1 mm 5 mps 766 mmHg 80%
    19:00 +14°C° 0.1 mm 5 mps 766 mmHg 84%
    20:00 +14°C° 0.1 mm 5 mps 766 mmHg 84%
    21:00 +14°C° 0.1 mm 4 mps 766 mmHg 84%
    22:00 +14°C° 0 mm 4 mps 766 mmHg 87%
    23:00 +14°C° 0.1 mm 3 mps 766 mmHg 87%

    Tomorrow, 27 May, Wednesday

    Time Temperature Precipitation Wind Pressure Humidity
    00:00 +14°C° 0.1 mm 3 mps 766 mmHg 88%
    01:00 +13°C° 0.1 mm 3 mps 766 mmHg 88%
    02:00 +13°C° 0.1 mm 3 mps 766 mmHg 89%
    03:00 +13°C° 0.1 mm 3 mps 766 mmHg 89%
    04:00 +13°C° 0.1 mm 3 mps 765 mmHg 90%
    05:00 +14°C° 0.2 mm 2 mps 766 mmHg 90%
    06:00 +14°C° 0.2 mm 2 mps 766 mmHg 91%
    07:00 +13°C° 0.2 mm 2 mps 766 mmHg 91%
    08:00 +14°C° 0.2 mm 2 mps 766 mmHg 89%
    09:00 +15°C° 0.2 mm 2 mps 766 mmHg 86%
    10:00 +16°C° 0.2 mm 2 mps 766 mmHg 83%
    11:00 +16°C° 0.2 mm 2 mps 765 mmHg 82%
    12:00 +17°C° 0.2 mm 2 mps 764 mmHg 80%
    13:00 +18°C° 0.2 mm 1 mps 764 mmHg 78%
    14:00 +18°C° 0 mm 1 mps 764 mmHg 78%
    15:00 +19°C° 0 mm 1 mps 764 mmHg 77%
    16:00 +19°C° 0 mm 1 mps 763 mmHg 76%
    17:00 +18°C° 0 mm 1 mps 764 mmHg 79%
    18:00 +16°C° 0 mm 1 mps 764 mmHg 82%
    19:00 +15°C° 0 mm 1 mps 764 mmHg 85%
    20:00 +15°C° 0 mm 1 mps 764 mmHg 87%
    21:00 +14°C° 0 mm 1 mps 764 mmHg 88%
    22:00 +14°C° 0 mm 1 mps 765 mmHg 90%
    23:00 +14°C° 0 mm 2 mps 764 mmHg 91%

    Day after tomorrow, 28 May, Thursday

    Time Temperature Precipitation Wind Pressure Humidity
    00:00 +13°C° 0 mm 2 mps 764 mmHg 92%
    01:00 +13°C° 0 mm 2 mps 764 mmHg 93%
    02:00 +13°C° 0 mm 2 mps 764 mmHg 93%
    03:00 +12°C° 0 mm 2 mps 764 mmHg 92%
    04:00 +12°C° 0 mm 2 mps 764 mmHg 92%
    05:00 +12°C° 0 mm 2 mps 764 mmHg 92%
    06:00 +11°C° 0 mm 3 mps 765 mmHg 91%
    07:00 +10°C° 0 mm 3 mps 765 mmHg 90%
    08:00 +12°C° 0 mm 3 mps 765 mmHg 82%
    09:00 +14°C° 0 mm 3 mps 765 mmHg 74%
    10:00 +17°C° 0 mm 3 mps 765 mmHg 66%
    11:00 +18°C° 0 mm 2 mps 764 mmHg 60%
    12:00 +20°C° 0 mm 2 mps 764 mmHg 54%
    13:00 +21°C° 0 mm 2 mps 763 mmHg 48%
    14:00 +21°C° 0 mm 2 mps 764 mmHg 52%
    15:00 +20°C° 0 mm 2 mps 764 mmHg 56%
    16:00 +20°C° 0 mm 3 mps 764 mmHg 60%
    17:00 +18°C° 0.1 mm 3 mps 764 mmHg 67%
    18:00 +17°C° 0.1 mm 3 mps 765 mmHg 74%
    19:00 +14°C° 0.1 mm 3 mps 766 mmHg 81%
    20:00 +14°C° 0.1 mm 4 mps 766 mmHg 82%
    21:00 +13°C° 0.1 mm 4 mps 767 mmHg 83%
    22:00 +13°C° 0.1 mm 4 mps 767 mmHg 85%
    23:00 +12°C° 0.1 mm 4 mps 767 mmHg 84%

    29 May, Friday

    Time Temperature Precipitation Wind Pressure Humidity
    00:00 +12°C° 0.1 mm 4 mps 767 mmHg 83%
    01:00 +11°C° 0.1 mm 4 mps 767 mmHg 82%
    02:00 +11°C° 0.1 mm 4 mps 767 mmHg 83%
    03:00 +11°C° 0.1 mm 4 mps 767 mmHg 84%
    04:00 +11°C° 0.1 mm 4 mps 767 mmHg 85%
    05:00 +10°C° 0.1 mm 3 mps 768 mmHg 85%
    06:00 +10°C° 0.1 mm 3 mps 768 mmHg 86%
    07:00 +10°C° 0.1 mm 3 mps 769 mmHg 87%
    08:00 +12°C° 0.1 mm 3 mps 769 mmHg 81%
    09:00 +14°C° 0.1 mm 3 mps 769 mmHg 75%
    10:00 +17°C° 0.1 mm 3 mps 770 mmHg 69%
    11:00 +18°C° 0.2 mm 3 mps 769 mmHg 66%
    12:00 +19°C° 0.2 mm 3 mps 769 mmHg 64%
    13:00 +20°C° 0.2 mm 3 mps 768 mmHg 61%
    14:00 +19°C° 0.1 mm 3 mps 768 mmHg 65%
    15:00 +19°C° 0.1 mm 3 mps 768 mmHg 68%
    16:00 +18°C° 0.1 mm 2 mps 768 mmHg 72%
    17:00 +17°C° 0 mm 2 mps 769 mmHg 77%
    18:00 +16°C° 0 mm 2 mps 769 mmHg 81%
    19:00 +15°C° 0 mm 1 mps 769 mmHg 86%
    20:00 +15°C° 0 mm 1 mps 770 mmHg 88%
    21:00 +14°C° 0 mm 1 mps 770 mmHg 89%
    22:00 +14°C° 0 mm 1 mps 770 mmHg 90%
    23:00 +13°C° 0 mm 1 mps 770 mmHg 91%

    30 May, Saturday

    Time Temperature Precipitation Wind Pressure Humidity
    00:00 +13°C° 0 mm 2 mps 770 mmHg 92%
    01:00 +13°C° 0 mm 2 mps 770 mmHg 93%
    02:00 +13°C° 0 mm 2 mps 770 mmHg 93%
    03:00 +12°C° 0 mm 2 mps 770 mmHg 93%
    04:00 +12°C° 0 mm 2 mps 770 mmHg 93%
    05:00 +12°C° 0 mm 2 mps 770 mmHg 93%
    06:00 +12°C° 0 mm 2 mps 770 mmHg 92%
    07:00 +10°C° 0 mm 2 mps 770 mmHg 92%
    08:00 +13°C° 0 mm 2 mps 770 mmHg 85%
    09:00 +15°C° 0 mm 2 mps 770 mmHg 78%
    10:00 +17°C° 0 mm 2 mps 770 mmHg 71%
    11:00 +18°C° 0 mm 3 mps 769 mmHg 66%
    12:00 +19°C° 0 mm 4 mps 768 mmHg 60%
    13:00 +21°C° 0 mm 4 mps 768 mmHg 55%
    14:00 +20°C° 0 mm 5 mps 767 mmHg 57%
    15:00 +20°C° 0 mm 5 mps 767 mmHg 60%
    16:00 +19°C° 0 mm 6 mps 767 mmHg 62%
    17:00 +17°C° 0 mm 6 mps 767 mmHg 68%
    18:00 +16°C° 0 mm 6 mps 767 mmHg 73%
    19:00 +15°C° 0 mm 6 mps 767 mmHg 79%
    20:00 +15°C° 0 mm 6 mps 767 mmHg 80%
    21:00 +14°C° 0 mm 6 mps 767 mmHg 81%
    22:00 +14°C° 0 mm 6 mps 766 mmHg 82%
    23:00 +13°C° 0 mm 5 mps 766 mmHg 84%

    31 May, Sunday

    Time Temperature Precipitation Wind Pressure Humidity
    00:00 +13°C° 0 mm 5 mps 766 mmHg 85%
    01:00 +12°C° 0 mm 5 mps 765 mmHg 86%
    02:00 +12°C° 0 mm 4 mps 765 mmHg 86%
    03:00 +11°C° 0 mm 4 mps 765 mmHg 85%
    04:00 +11°C° 0 mm 3 mps 764 mmHg 85%
    05:00 +11°C° 0 mm 3 mps 764 mmHg 83%
    06:00 +11°C° 0 mm 4 mps 764 mmHg 82%
    07:00 +12°C° 0 mm 4 mps 764 mmHg 80%
    08:00 +13°C° 0 mm 5 mps 764 mmHg 73%
    09:00 +15°C° 0 mm 6 mps 764 mmHg 66%
    10:00 +17°C° 0 mm 6 mps 764 mmHg 59%
    11:00 +19°C° 0 mm 6 mps 763 mmHg 53%
    12:00 +21°C° 0 mm 5 mps 762 mmHg 47%
    13:00 +23°C° 0 mm 4 mps 762 mmHg 41%
    14:00 +22°C° 0 mm 4 mps 761 mmHg 44%
    15:00 +21°C° 0 mm 4 mps 761 mmHg 48%
    16:00 +20°C° 0 mm 4 mps 761 mmHg 52%
    17:00 +19°C° 0 mm 4 mps 761 mmHg 55%
    18:00 +18°C° 0 mm 4 mps 761 mmHg 58%
    19:00 +17°C° 0 mm 4 mps 761 mmHg 61%
    20:00 +15°C° 0 mm 4 mps 761 mmHg 64%
    21:00 +15°C° 0 mm 4 mps 761 mmHg 67%
    22:00 +14°C° 0 mm 5 mps 761 mmHg 69%
    23:00 +15°C° 0 mm 5 mps 760 mmHg 69%
    Show more